#timestamp,LO_Frequency,Hit 
1503219615.1,286046997.2,N
1503219635.9,286046997.3,N
1503219655.7,286046995.4,N
1503219675.5,286046993.3,P
1503219695.4,286046999.4,N
1503219715.2,286046999.2,N
1503219735.0,286046998.3,N
1503219735.9,286046998.3,N
1503219755.8,286046998.8,N
1503219775.6,286046996.9,N
1503219795.4,286046997.1,N
1503219815.2,286047000.9,N
1503219835.1,286046998.9,N
1503219836.0,286046998.9,N
1503219855.8,286046998.4,N
1503219875.6,286046999.0,N
1503219895.5,286046998.3,N
1503219915.3,286046997.1,N
1503219935.1,286046995.6,N
1503219955.9,286046997.1,N
1503219975.7,286046997.2,N
1503219995.5,286046997.0,N
1503220015.4,286046995.0,P
1503220035.2,286046998.2,N
1503220055.0,286047000.1,N
1503220055.9,286047000.1,N
1503220075.8,286046998.3,N
1503220095.6,286046998.6,N
1503220115.4,286047004.1,N
1503220135.3,286047003.9,N
1503220155.1,286047001.5,N
1503220156.0,286047001.5,N
1503220175.8,286047001.8,N
1503220195.6,286046998.5,N
1503220215.5,286047002.3,N
1503220235.3,286047002.6,N
1503220255.1,286047002.6,N
1503220275.9,286046998.6,N
1503220295.7,286047000.0,N
1503220315.5,286047000.0,N
1503220335.4,286046999.4,N
1503220355.2,286047000.8,N
1503220375.0,286046996.5,N
1503220375.9,286046996.5,N
1503220395.8,286046995.0,N
1503220415.6,286046997.5,N
1503220435.4,286046999.7,N
1503220455.3,286047000.4,N
1503220475.1,286046999.3,N
1503220476.0,286046999.3,N
1503220495.8,286046999.0,N
1503220515.7,286047001.4,N
1503220535.5,286047000.5,N
1503220555.3,286046998.7,N
1503220575.1,286046997.2,N
1503220595.9,286046996.1,N
1503220615.7,286046994.9,N
1503220635.5,286046996.3,N
1503220655.4,286046994.7,N
1503220675.2,286046992.4,P
1503220695.0,286046991.7,N
1503220695.9,286046991.7,N
1503220715.8,286046992.1,N
1503220735.6,286046992.7,N
1503220755.4,286046994.0,N
1503220775.3,286046993.4,N
1503220795.1,286046995.2,N
1503220796.0,286046995.2,N
1503220815.8,286046995.9,N
1503220835.7,286046997.4,N
1503220855.5,286046996.7,N
1503220875.3,286046996.2,N
1503220895.2,286046993.8,N
1503220915.9,286046994.4,N
1503220935.7,286046992.9,P
1503220955.6,286046998.7,N
1503220975.4,286046998.7,N
1503220995.2,286046999.2,N
1503221015.1,286046999.1,N
1503221016.0,286046999.1,N
1503221035.8,286046998.4,N
1503221055.6,286046999.1,N
1503221075.5,286046997.7,N
1503221095.3,286046997.0,N
1503221115.1,286046998.8,N
1503221135.8,286046995.7,N
1503221155.7,286046995.5,N
1503221175.5,286046994.2,N
1503221195.3,286046993.5,P
1503221215.2,286046999.4,N
1503221235.0,286046999.2,N
1503221235.9,286046999.2,N
1503221255.7,286047001.2,N
1503221275.6,286046998.1,N
1503221295.4,286046998.1,N
1503221315.2,286047002.5,N
1503221335.1,286046999.8,N
1503221336.0,286046999.8,N
1503221355.8,286047000.9,N
1503221375.6,286046999.9,N
1503221395.5,286046999.9,N
1503221415.3,286047002.5,N
1503221435.1,286046998.6,N
1503221455.9,286046998.3,N
1503221475.7,286047001.2,N
1503221495.5,286046999.7,N
1503221515.3,286047002.4,N
1503221535.2,286047002.3,N
1503221555.0,286047002.3,N
1503221555.9,286047002.3,N
1503221575.7,286047002.7,N
1503221595.6,286047001.7,N
1503221615.4,286047004.4,N
1503221635.2,286047000.0,N
1503221655.1,286046999.7,N
1503221656.0,286046999.7,N
1503221675.8,286047000.8,N
1503221695.6,286046999.7,N
1503221715.5,286047000.7,N
1503221735.3,286046999.3,N
1503221755.1,286047001.1,N
1503221775.9,286047000.2,N
1503221795.7,286046998.7,N
1503221815.5,286047000.9,N
1503221835.3,286046998.6,N
1503221855.2,286046997.3,N
1503221875.0,286046996.5,N
1503221875.9,286046996.5,N
1503221895.7,286047000.9,N
1503221915.6,286046998.2,N
1503221935.4,286046999.9,N
1503221955.2,286047000.9,N
1503221975.1,286047000.1,N
1503221976.0,286047000.1,N
1503221995.8,286047002.0,N
1503222015.6,286047003.6,N
1503222035.5,286047001.4,N
1503222055.3,286047001.8,N
1503222075.1,286047001.4,N
1503222095.9,286047002.0,N
1503222115.7,286047001.7,N
1503222135.5,286047002.7,N
1503222155.3,286047003.7,N
1503222175.2,286047003.6,N
1503222195.0,286047005.5,N
1503222195.9,286047005.5,N
1503222215.7,286047003.5,N
1503222235.6,286047002.8,N
1503222255.4,286046999.8,N
1503222275.2,286047000.2,N
1503222295.1,286047000.2,N
1503222296.0,286047000.2,N
1503222315.8,286046999.8,N
1503222335.6,286047001.7,N
1503222355.5,286047001.7,N
1503222375.3,286047001.3,N
1503222395.1,286047001.9,N
1503222415.9,286047004.2,N
1503222435.7,286047004.4,N
1503222455.5,286047004.2,N
1503222475.4,286047003.9,N
1503222495.2,286047003.6,N
1503222515.0,286047004.2,N
1503222515.9,286047004.2,N
1503222535.8,286047001.5,N
1503222555.6,286047003.6,N
1503222575.4,286047005.5,P
1503222595.3,286047001.5,N
1503222615.1,286047002.5,N
1503222616.0,286047002.5,N
1503222635.8,286047000.0,N
1503222655.7,286047000.4,N
1503222675.5,286047002.3,N
1503222695.3,286047000.5,N
1503222715.1,286047000.1,N
1503222735.9,286047004.0,N
1503222755.7,286046999.9,N
1503222775.5,286047000.3,N
1503222795.4,286047000.9,N
1503222815.2,286046999.9,N
1503222835.0,286047000.0,N
1503222835.9,286047000.0,N
1503222855.8,286046998.3,N
1503222875.6,286046998.7,N
1503222895.4,286046998.2,N
1503222915.3,286046996.9,N
1503222935.1,286046997.1,N
1503222936.0,286046997.1,N
1503222955.8,286046998.9,N
1503222975.6,286046996.8,N
1503222995.5,286046997.6,N
1503223015.3,286046995.0,N
1503223035.1,286046998.6,N
1503223055.9,286046996.8,N
1503223075.7,286046996.8,N
1503223095.5,286046995.6,N
1503223115.4,286046998.0,N
1503223135.2,286046997.0,N
1503223155.0,286046997.3,N
1503223155.9,286046997.3,N
1503223175.8,286046998.0,N
1503223195.6,286046995.3,N
